Location: Unspecified
(0.0000°N, 0.0000°E)
Time: 15:21:42
(UTC+00:00)

Courier 1B - Visible Passes

Search period start: 12 April 2021 00:00
Search period end: 22 April 2021 00:00
Orbit: 963 x 1209 km, 28.3° (Epoch: 11 April)

Date Brightness Start Highest point End Pass type
(mag) Time Alt. Az. Time Alt. Az. Time Alt. Az.
12 Apr 10.0 20:49:16 10° NNW 20:50:13 12° N 20:50:13 12° N visible
13 Apr 9.7 19:56:46 10° N 19:59:47 13° NNE 19:59:47 13° NNE visible
14 Apr 9.8 20:54:31 10° NNW 20:56:16 17° NNW 20:56:16 17° NNW visible
15 Apr 9.2 20:01:26 10° NNW 20:05:53 22° NNE 20:05:53 22° NNE visible
16 Apr 9.5 19:08:41 10° N 19:12:38 16° NNE 19:15:33 13° NE visible
16 Apr 9.6 21:00:18 10° NW 21:02:27 21° NW 21:02:27 21° NW visible
17 Apr 9.7 18:16:48 10° N 18:18:30 11° NNE 18:20:15 10° NE visible
17 Apr 8.6 20:06:56 10° NW 20:12:08 35° N 20:12:08 35° N visible
18 Apr 8.8 19:13:45 10° NNW 19:19:23 27° NNE 19:21:51 22° ENE visible
18 Apr 9.6 21:06:34 10° WNW 21:08:45 22° WNW 21:08:45 22° WNW visible
19 Apr 9.2 18:20:49 10° NNW 18:25:26 19° NNE 18:30:12 10° ENE visible
19 Apr 8.0 20:12:56 10° NW 20:18:30 57° NNW 20:18:30 57° NNW visible
20 Apr 8.0 19:19:27 10° NW 19:25:56 48° NNE 19:28:16 36° ENE visible
20 Apr 9.8 21:13:23 10° WNW 21:15:11 19° W 21:15:11 19° W visible
21 Apr 9.9 05:00:50 10° SSW 05:04:56 15° SSE 05:08:57 10° SE visible
21 Apr 8.5 18:26:11 10° NW 18:32:05 34° NNE 18:38:04 11° E visible
21 Apr 8.1 20:19:25 10° WNW 20:24:58 57° W 20:24:58 57° W visible
